Regional Weather Roundup
Issued by NWS

Home | Current Version | Previous Version | Text Only | Print | Product List | Glossary Off
Versions: 1 2 3 4 5 6 7 8 9 10 11 12 13 14 15 16 17 18 19 20 21 22 23 24 25 26 27 28 29 30 31 32 33 34 35 36 37 38 39 40 41 42 43 44 45 46 47 48 49 50

335
ASUS43 KMKX 191011
RWRWI

WISCONSIN REGIONAL WEATHER ROUNDUP
NATIONAL WEATHER SERVICE MILWAUKEE/SULLIVAN WI
400 AM CST SUN FEB 19 2017

NOTE: "FAIR" INDICATES FEW OR NO CLOUDS BELOW 12,000 FEET WITH NO
SIGNIFICANT WEATHER AND/OR OBSTRUCTIONS TO VISIBILITY.

WIZ001-002-006>008-014>016-023>028-191100-
NORTHWEST WISCONSIN

CITY           SKY/WX    TMP DP  RH WIND       PRES   REMARKS
SUPERIOR ARPT  CLEAR     29  28  94 CALM      29.92R
ASHLAND        MOCLDY    32  27  81 SW6       29.92R WCI  26
HAYWARD        CLEAR     29  26  89 CALM      29.90S
SIREN          CLOUDY    29  28  96 CALM      29.91S
CUMBERLAND     PTCLDY    32  30  93 CALM      29.91S
RICE LAKE      PTCLDY    32  31  97 CALM      29.92R
CHETEK         PTCLDY    30  29  98 CALM      29.92R
LADYSMITH      CLEAR     32  30  94 CALM      29.92R
EAU CLAIRE     CLEAR     28  27  96 CALM      29.92R FOG
MENOMONIE      CLEAR     30  29  96 CALM      29.92S
NEW RICHMOND   CLEAR     30  30  99 CALM      29.92S
OSCEOLA        CLEAR     29  29 100 CALM      29.94S
$$

WIZ003>005-009-010-017-018-191100-
NORTH CENTRAL WISCONSIN

CITY           SKY/WX    TMP DP  RH WIND       PRES   REMARKS
MANITOWISH WTR CLEAR     29  27  94 CALM      29.89R
ARBOR VITAE    CLEAR     32  29  86 CALM      29.89R
WOODRUFF       CLEAR     32  29  86 CALM      29.89R
RHINELANDER    CLEAR     41  30  65 NW6       29.89R
EAGLE RIVER    CLEAR     32  26  78 CALM      29.88R
LAND O LAKES   CLEAR     29  25  86 CALM      29.90R
PHILLIPS       CLOUDY    28  28  98 CALM      29.89S
TOMAHAWK       CLEAR     32  29  90 CALM      29.90R
MEDFORD        CLEAR     35  31  87 NW3       29.90R
MERRILL        NOT AVBL
$$

WIZ029-030-035-036-043>047-191100-
CENTRAL WISCONSIN

CITY           SKY/WX    TMP DP  RH WIND       PRES   REMARKS
WAUSAU         CLEAR     35  31  85 CALM      29.89R
MOSINEE        CLEAR     32  32 100 CALM      29.91R
MARSHFIELD     CLEAR     37  31  78 CALM      29.90R
STEVENS POINT  CLEAR     29  29  98 CALM      29.92R
WAUPACA        CLOUDY    40  32  73 CALM      29.91R
WAUTOMA        PTCLDY    33  29  85 CALM      29.93R
WISC RAPIDS    CLEAR     30  28  92 CALM      29.93R
CAMP DOUGLAS   CLEAR     26  24  92 CALM      29.93R
$$

WIZ011>013-019>022-031-037>040-048>050-191100-
NORTHEAST WISCONSIN

CITY           SKY/WX    TMP DP  RH WIND       PRES   REMARKS
ANTIGO         CLOUDY    31  29  92 CALM      29.89R
SHAWANO        CLOUDY    42  32  68 SW3       29.89R
OCONTO         PTCLDY    33  29  85 CALM      29.88R
STURGEON BAY   PTCLDY    42  30  62 W8        29.88R
GREEN BAY      CLOUDY    37  33  85 S3        29.89R
MANITOWOC      CLOUDY    43  31  62 MISG      29.90R
APPLETON       CLOUDY    37  30  75 W10       29.89R WCI  30
CLINTONVILLE   PTCLDY    41  32  70 W3        29.89R
OSHKOSH        CLOUDY    40  30  67 W7        29.91R
$$

WIZ032>034-041-042-053>061-191100-
SOUTHWEST WISCONSIN

CITY           SKY/WX    TMP DP  RH WIND       PRES   REMARKS
LA CROSSE      CLEAR     31  29  92 SE5       29.94R WCI  26
SPARTA         CLEAR     24  23  95 CALM      29.95R
VIROQUA        CLEAR     41  35  79 CALM      29.93R
BOSCOBEL       CLEAR     26  24  92 CALM      29.95R
PRAIRIE DU CHI MOCLDY    29  28  95 CALM      29.95R
PLATTEVILLE    CLEAR     36  36 100 CALM      29.93R
$$

WIZ056-057-062-063-064-067-068-191100-
SOUTH CENTRAL WISCONSIN

CITY           SKY/WX    TMP DP  RH WIND       PRES   REMARKS
REEDSBURG      CLEAR     28  28 100 CALM      29.94R
BARABOO/DELLS  CLEAR     31  29  92 CALM      29.94R
LONE ROCK      CLEAR     28  26  92 CALM      29.95R
MINERAL POINT  CLOUDY    41  34  75 CALM      29.92R
MADISON        CLEAR     29  27  92 CALM      29.93R
MIDDLETON      CLEAR     32  31  97 CALM      29.93R
WATERTOWN      PTCLDY    28  28 100 CALM      29.93R
MONROE         CLEAR     46  32  57 N3        29.92R
JANESVILLE     CLEAR     32  32 100 CALM      29.93R
$$

WIZ051-052-058>065-066-070>072-191100-
SOUTHEAST WISCONSIN

CITY           SKY/WX    TMP DP  RH WIND       PRES   REMARKS
MILWAUKEE      CLOUDY    45  32  60 NW5       29.92R
WAUKESHA         N/A     36  30  80 CALM      29.93R
MILWAUKEE/TIMM CLOUDY    37  30  75 W6        29.93R WCI  33
RACINE         PTCLDY    44  33  65 W8        29.93R
KENOSHA        PTCLDY    39  32  76 W3        29.92R
FOND DU LAC    CLOUDY    33  28  81 S3        29.92R
SHEBOYGAN      PTCLDY    41  30  65 W7        29.90R
WEST BEND      PTCLDY    41  32  70 CALM      29.92R
JUNEAU         PTCLDY    35  31  83 CALM      29.94R
$$

LSZ147-162-191100-
LAKE SUPERIOR

STATION/POSITION TIME  TEMP    WIND        PRES    WAVE
                       AIR SEA DIR/SP/G            HT/PER
                 (UTC) (F)     (DEG/KT/KT) (MB)    (FT/S)
DEVILS ISLAND    1000   38     330/  6/  7 1013.4R
PORT WING        0930   31     190/  4/  5 1013.2R
SAXON HARBOR     0940   31     200/  4/  5 1012.5R
$$

LMZ867-665-643>646-191100-
LAKE MICHIGAN

STATION/POSITION TIME  TEMP    WIND        PRES    WAVE
                       AIR SEA DIR/SP/G            HT/PER
                 (UTC) (F)     (DEG/KT/KT) (MB)    (FT/S)
CHAMBERS ISLAND  0930   42     220/  2/  8 1010.8R
NORTHPORT PIER   0940   42     240/  3/  7 1011.2R
SISTER BAY       0935   41     260/ 10/ 10   N/A
ALGOMA LAKESHORE 0940          320/  6/  9   N/A
KEWAUNEE LAKESHO 0948   44     300/  7/  9 1011.1R
SHEBOYGAN LAKESH 1000   46     280/  8/ 10 1012.5R
PORT WASHINGTON  0930   46     290/  6/ 10 1013.5R
MILWAUKEE LAKESH 0930   47     290/  9/ 11   N/A
KENOSHA   LAKESH 1000   45      CALM  /  5 1013.2
$$

TC  - TEMPERATURE IN CELSIUS
VSB - VISIBILITY IN STATUTE MILES
WCI - WIND CHILL INDEX
HX  - HEAT INDEX





USA.gov is the U.S. government's official web portal to all federal, state and local government web resources and services.